EST,Max TemperatureF,Mean TemperatureF,Min TemperatureF,Max Dew PointF,MeanDew PointF,Min DewpointF,Max Humidity, Mean Humidity, Min Humidity, Max Sea Level PressureIn, Mean Sea Level PressureIn, Min Sea Level PressureIn, Max VisibilityMiles, Mean VisibilityMiles, Min VisibilityMiles, Max Wind SpeedMPH, Mean Wind SpeedMPH, Max Gust SpeedMPH,PrecipitationIn, CloudCover, Events, WindDirDegrees
2012-12-1,62,46,30,41,35,28,92,69,46,30.37,30.30,30.25,10,8,3,12,3,14,0.00,0,Fog,156
2012-12-2,61,53,44,55,50,40,93,72,51,30.25,30.18,30.13,10,5,2,20,8,26,0.52,6,Rain,200
2012-12-3,67,59,50,55,54,50,100,86,72,30.25,30.20,30.17,10,8,2,12,4,17,0.07,5,Rain,178
2012-12-4,64,54,44,57,51,42,100,84,67,30.20,30.14,30.05,10,8,2,24,8,33,0.35,6,Rain,211
2012-12-5,49,40,30,42,33,23,100,73,46,30.38,30.32,30.21,10,10,10,12,6,17,0.01,1,,312
2012-12-6,51,38,25,41,28,21,81,61,41,30.37,30.20,30.06,10,10,10,9,2,10,0.02,2,Rain,76
2012-12-7,53,50,47,52,50,41,100,93,86,30.05,29.97,29.90,9,3,1,9,4,13,1.06,8,Rain,169
2012-12-8,56,53,50,54,52,46,100,92,83,30.06,29.93,29.89,10,5,1,10,4,15,0.35,8,Rain,209
2012-12-9,60,52,44,56,47,42,93,87,80,30.10,30.01,29.78,10,6,1,13,7,20,0.55,8,Rain,75
2012-12-10,60,48,36,55,45,32,100,92,84,29.90,29.73,29.62,10,6,2,17,7,23,0.94,8,Rain,255
2012-12-11,38,34,30,31,28,24,89,77,64,30.29,30.09,29.90,10,8,7,13,5,17,0.00,8,,249
2012-12-12,42,33,24,27,23,19,92,66,39,30.47,30.41,30.30,10,8,2,6,0,12,0.00,0,,-1
2012-12-13,47,33,19,28,21,16,92,63,33,30.48,30.42,30.35,10,7,1,5,1,7,0.00,0,Fog,219
2012-12-14,52,37,21,31,23,18,92,61,30,30.38,30.32,30.25,10,7,2,9,2,14,0.00,0,,183
2012-12-15,52,42,31,41,32,26,92,67,42,30.25,30.12,29.95,10,10,8,8,5,8,0.02,3,Rain,156
2012-12-16,60,56,51,52,46,36,77,64,51,29.88,29.81,29.75,10,10,10,12,10,,T,5,Rain,213
2012-12-17,57,52,46,52,50,44,100,89,77,29.79,29.67,29.59,10,6,1,21,3,25,0.85,8,Fog-Rain,201
2012-12-18,47,43,38,45,38,33,93,82,70,29.89,29.76,29.59,10,9,7,21,8,26,T,7,Rain,233
2012-12-19,46,40,34,37,34,32,96,81,65,30.18,30.04,29.83,10,8,4,12,5,16,0.00,5,,225
2012-12-20,52,45,37,43,37,27,89,73,56,30.10,29.70,29.43,10,7,2,25,10,37,0.54,5,Rain,142
2012-12-21,39,34,29,27,25,23,85,72,59,29.90,29.64,29.52,10,4,1,25,16,41,0.06,8,Snow,247
2012-12-22,33,28,23,27,22,19,81,72,63,30.20,30.09,29.89,10,10,7,20,9,30,0.01,7,Snow,258
2012-12-23,45,33,20,26,22,17,88,67,45,30.14,30.04,29.96,10,10,7,13,4,16,0.00,0,,229
2012-12-24,40,33,25,38,32,23,100,92,84,30.01,29.87,29.78,10,4,0,9,2,15,0.15,6,Fog-Rain,190
2012-12-25,40,37,33,37,31,27,92,84,75,30.21,30.14,29.98,10,7,4,15,7,20,0.00,8,,351
2012-12-26,38,35,32,34,31,27,96,83,70,30.09,29.68,29.55,10,6,1,22,10,31,1.06,8,Rain-Snow,29
2012-12-27,32,30,28,28,26,25,85,82,78,30.21,30.03,29.73,10,8,2,21,8,28,T,8,Rain-Snow,278
2012-12-28,36,33,29,28,26,24,92,84,75,30.21,30.12,29.91,10,8,2,10,3,13,T,7,Snow,51
2012-12-29,33,32,30,31,29,25,92,89,85,30.09,29.85,29.68,6,2,0,22,6,33,0.36,8,Fog-Snow,285
2012-12-30,30,25,20,25,21,17,92,81,69,30.47,30.34,30.08,10,8,4,21,7,32,T,6,Snow,246
2012-12-31,35,27,19,27,23,18,91,78,64,30.41,30.23,30.09,10,8,1,14,6,21,0.02,5,Snow,196